Find Starlink 1876

NORAD ID: 47161 Int'l Des: 2020-088 Owner: SPXS Country: US Constellation: starlink operational
LEOCIRCULAR

現在のビュー

3D地球を読み込み中...

About Starlink 1876

Starlink 1876 (NORAD 47161) is a starlink constellation satellite (v1.0) launched Nov 25, 2020 by SPXS of US. It operates in LEO, CIRCULAR orbit with a mass of 260.00 kg.

Starlink 1876について

説明を読み込み中...

次回通過

Passes for default location (London). Set your location on the main map for personalized predictions.

高度履歴

Loading altitude history...

軌道要素

1 47161U 20088AR 26171.50003471 .00363731 64866-4 82662-3 0 9998
2 47161 53.0373 118.4802 0003180 68.2592 126.6525 15.96990101 6004
Epoch: Jun 20, 2026 • Age: 7 hours

現在のステータス

高度 284.8 km
速度 7.74 km/s
衛星直下点 -10.59°S, 79.6°W
打ち上げ日 Nov 25, 2020
運用期間 5.5 years
タイプ internet

技術仕様

分類 Payload
質量 260.00 kg
乾燥質量 248.00 kg
総質量 260.00 kg
長さ 0.20 m
直径 2.80 m
スパン 9.00 m
形状 Box + pan
製造者 SPXS
バスタイプ Starlink
フェーズステータス In Orbit
所有者/国 SPXS/US

Most Searched